Temp
57 57 57 58 58 57 57 57 56 56 57 57 58 58 58 58 57 61 74 73 67 68 73 74 74 69 71 71 65 72 69 71 69 63 64 66 66 69 68 69 67 65 63 65 66 61 58 73 80 71 72 83 81 82
57 57 57 57 57 57 57 56 56 56 56 57 57 57 57 57 57 57 71 77 74 65 70 75 74 76 74 73 69 71 69 67 71 65 68 67 64 68 66 60 74 62 70 66 68 55 67 74 76 82 82 80 79 80
57 56 56 57 57 57 57 56 56 56 56 56 57 57 57 57 57 57 67 71 71 67 72 75 74 78 81 79 81 65 73 73 70 73 66 65 58 67 59 63 66 71 76 68 68 73 73 73 75 80 79 80 81 82
56 56 56 56 57 56 56 56 56 56 56 56 56 57 57 56 56 56 66 72 69 68 62 73 81 74 81 81 78 77 74 76 74 70 62 60 59 70 64 66 64 70 70 66 66 70 74 76 73 64 79 80 80 81
56 56 56 56 56 56 56 56 56 56 56 56 56 56 56 56 56 61 71 74 73 64 60 66 75 79 82 79 76 76 74 71 65 60 57 56 66 63 67 66 64 71 66 62 63 72 71 72 78 66 69 78 80 80
55 55 56 56 56 56 56 56 56 56 55 56 56 56 56 56 56 65 65 71 74 71 56 60 77 74 77 77 74 72 72 70 66 60 60 65 68 60 53 55 67 70 70 71 66 72 74 76 78 77 64 71 73 81
55 55 55 56 56 56 56 56 55 55 55 55 55 55 55 55 61 64 62 61 59 69 55 57 67 76 76 76 75 70 70 65 63 59 55 58 62 60 54 51 64 68 66 66 69 68 63 71 72 78 70 70 75 82
55 55 55 55 56 56 55 55 55 55 55 55 55 55 54 54 56 62 68 57 61 62 61 53 64 70 77 70 65 71 69 63 61 62 59 58 61 58 47 59 61 56 56 60 62 65 64 67 67 71 78 80 78 78
55 55 55 55 55 55 55 55 55 55 55 55 55 55 62 62 66 64 58 58 67 60 49 53 60 60 76 67 67 69 66 57 63 54 58 59 55 46 53 57 54 55 54 55 58 60 62 63 63 67 69 77 76 76
54 55 55 55 55 55 55 55 55 55 54 54 59 66 63 65 55 59 60 51 53 58 58 56 69 61 66 63 61 59 61 55 49 58 62 56 55 60 52 53 53 53 54 54 50 50 54 55 61 66 67 74 78 78
54 54 54 54 54 55 55 55 54 54 54 67 68 68 70 57 67 62 53 54 56 53 59 64 65 58 67 59 58 58 53 56 45 58 51 52 51 51 54 53 54 54 54 53 54 54 55 56 60 65 67 71 78 78
54 54 54 54 54 55 55 54 54 60 66 57 57 63 69 65 61 53 53 58 57 54 61 59 61 65 67 68 60 55 47 48 46 57 46 44 49 52 52 53 54 55 56 56 59 60 60 57 60 63 64 67 77 79
53 53 53 54 54 54 54 54 54 55 54 64 60 59 63 59 43 48 51 58 61 62 67 69 65 70 68 67 57 55 47 51 60 49 45 47 51 52 53 53 54 57 58 58 59 69 64 60 64 68 67 71 78 77
53 53 53 53 53 54 54 54 54 56 60 60 58 38 53 53 58 63 64 66 70 69 69 69 67 67 64 57 56 50 55 53 46 41 42 49 50 51 52 53 53 54 56 59 65 71 64 65 67 70 71 70 71 75
53 53 53 53 53 54 54 54 54 62 63 58 60 44 57 66 70 69 71 69 71 75 70 68 67 64 59 56 58 55 46 46 48 44 52 51 53 51 51 52 53 54 59 64 69 71 72 70 68 69 70 69 70 73
53 52 53 53 53 53 53 53 57 65 63 59 58 58 65 64 66 69 69 67 74 74 72 68 57 56 55 58 53 51 50 49 53 52 51 58 56 55 54 54 55 57 61 65 68 71 72 73 73 72 73 73 72 76
52 53 53 52 53 53 53 56 60 56 58 56 60 67 66 65 64 67 69 70 75 69 60 63 52 52 59 55 53 60 53 57 58 56 64 64 63 57 57 57 57 58 60 59 66 71 73 75 79 77 74 75 79 78
53 53 53 53 55 53 56 59 56 56 52 61 60 65 68 68 66 67 70 72 69 67 62 56 60 53 49 49 53 60 64 62 67 67 69 66 67 62 60 58 58 58 59 62 66 68 70 69 74 77 77 77 78 78
54 53 53 53 55 52 52 56 60 53 59 65 66 67 67 68 70 70 70 71 71 71 68 64 55 54 55 59 60 61 63 66 67 70 72 67 68 66 61 60 59 58 59 59 61 61 62 64 68 68 69 70 68 70
52 52 52 52 52 52 51 54 61 55 55 64 66 64 66 67 70 71 71 71 69 67 61 58 58 61 64 66 66 67 63 69 68 65 66 68 67 69 64 60 58 58 58 58 58 53 57 59 60 61 60 59 60 65
52 51 52 52 51 57 57 58 56 60 62 60 67 66 65 69 68 67 68 70 65 64 60 64 67 62 64 64 69 68 65 65 62 61 62 64 70 69 69 65 65 58 57 58 56 55 54 55 58 59 57 56 57 61
50 52 48 50 51 55 58 64 60 63 61 63 64 65 63 64 66 68 71 66 63 63 65 68 66 66 65 65 68 68 69 69 67 64 59 63 67 74 71 67 67 62 58 59 58 56 56 56 57 59 57 57 56 58
50 49 48 51 51 49 48 65 55 60 55 60 65 60 62 64 68 73 65 66 63 65 71 72 68 67 64 68 71 72 73 71 67 68 71 71 66 74 77 72 71 68 65 65 65 60 57 52 54 56 57 57 57 56
50 47 46 50 52 46 59 52 57 58 61 59 59 56 61 67 72 65 62 64 64 73 70 67 69 68 69 71 71 73 74 75 74 72 76 74 70 69 76 70 69 71 73 73 69 61 58 58 53 56 54 54 57 56
40 41 46 39 53 50 50 51 54 55 51 57 56 58 63 68 61 61 60 60 67 69 67 70 69 69 68 71 74 75 77 76 72 66 75 77 75 76 70 74 72 70 69 70 67 58 54 54 56 53 53 54 52 52
37 47 42 50 51 51 54 49 53 54 57 56 58 65 67 61 54 56 64 63 67 68 67 67 69 68 68 73 72 73 74 76 73 68 74 79 78 76 63 68 64 68 71 71 71 66 64 62 58 55 53 51 47 51
39 47 55 62 60 59 57 60 61 59 52 51 59 57 56 52 55 64 67 72 67 70 74 73 72 70 71 73 75 77 76 78 74 76 79 80 79 78 75 68 66 67 71 73 73 71 69 69 68 64 60 56 55 55
49 55 50 55 56 60 54 56 55 54 58 64 63 55 54 57 59 63 65 69 68 74 76 75 75 77 78 78 78 79 80 73 74 72 72 80 78 78 76 77 76 52 64 66 72 73 74 74 73 73 72 71 72 73
49 59 59 55 56 58 57 57 58 65 68 65 59 59 62 69 72 72 73 74 76 75 73 71 75 79 79 80 78 78 73 72 68 62 66 71 74 76 80 80 79 78 77 74 47 64 74 75 76 76 76 76 76 77
55 62 57 56 55 54 60 65 64 69 70 69 68 66 66 68 72 77 75 75 73 73 74 76 76 76 75 75 75 75 74 76 77 73 73 73 75 80 80 79 79 79 79 78 77 76 53 71 65 78 74 74 75 75
62 61 57 58 57 62 66 69 69 69 68 66 68 64 64 67 71 75 75 75 75 76 75 71 70 76 75 75 72 71 69 70 75 79 82 82 81 80 80 80 81 81 80 80 80 80 78 75 73 73 71 71 70 71
58 56 56 54 58 66 67 64 64 63 64 64 64 66 67 65 63 69 73 73 69 66 60 64 70 74 77 80 67 67 59 74 79 80 80 81 80 81 83 83 83 83 81 81 80 78 73 68 69 72 68 70 72 67
58 60 59 58 58 58 64 63 60 60 62 53 50 53 57 58 54 58 69 74 67 64 66 76 74 78 78 78 76 73 63 77 58 45 48 49 46 58 81 84 83 82 79 77 72 71 74 73 71 71 70 67 70 72
MSLP
1024.57 1024.46 1024.34 1024.25 1024.21 1024.20 1024.16 1024.04 1023.88 1023.64 1023.38 1023.08 1022.71 1022.33 1021.90 1021.48 1020.96 1020.02 1017.40 1017.89 1017.21 1014.88 1012.89 1012.45 1012.26 1012.09 1011.42 1011.05 1010.33 1009.43 1009.56 1008.61 1008.37 1007.40 1006.33 1005.02 1003.77 1002.91 1002.33 1001.89 1001.48 1001.30 1000.84 1000.06 1000.02 999.92 998.98 1000.59 998.76 999.07 999.67 998.58 999.40 999.30
1024.28 1024.22 1024.13 1024.03 1024.00 1024.01 1024.02 1023.96 1023.81 1023.62 1023.41 1023.14 1022.83 1022.49 1022.13 1021.79 1021.34 1020.73 1017.76 1017.36 1017.74 1016.68 1013.71 1013.50 1013.23 1012.90 1012.59 1012.31 1011.92 1011.00 1010.14 1009.92 1009.12 1008.58 1007.15 1006.69 1005.40 1004.27 1003.35 1002.43 1001.86 1001.63 1001.35 1000.87 1000.79 1001.26 1001.88 1001.96 1001.35 1000.60 1000.18 999.92 1000.02 1000.38
1023.97 1023.93 1023.88 1023.82 1023.83 1023.85 1023.87 1023.81 1023.67 1023.53 1023.37 1023.10 1022.81 1022.56 1022.29 1021.92 1021.56 1021.25 1019.17 1017.95 1017.09 1015.42 1012.93 1011.92 1011.09 1011.88 1012.29 1012.41 1012.30 1011.82 1010.17 1010.32 1010.33 1010.48 1009.79 1008.66 1007.47 1006.54 1005.09 1003.61 1002.76 1002.14 1002.05 1001.82 1001.61 1001.13 1001.39 1001.54 1002.11 1001.73 1001.42 1001.72 1001.01 1000.94
1023.50 1023.52 1023.54 1023.55 1023.61 1023.64 1023.67 1023.65 1023.54 1023.41 1023.26 1023.01 1022.70 1022.46 1022.21 1021.92 1021.59 1021.33 1019.28 1018.19 1017.69 1016.01 1013.98 1010.75 1011.22 1011.58 1011.58 1011.69 1011.92 1011.91 1011.55 1011.35 1011.36 1011.30 1010.74 1009.91 1008.53 1006.99 1005.81 1005.06 1004.41 1003.76 1003.37 1003.09 1002.70 1002.81 1002.09 1001.75 1002.48 1003.34 1001.58 1002.01 1001.86 1001.61
1023.21 1023.22 1023.21 1023.24 1023.29 1023.37 1023.44 1023.46 1023.41 1023.29 1023.14 1022.89 1022.60 1022.33 1022.04 1021.79 1021.54 1020.80 1018.73 1018.40 1018.16 1017.69 1015.11 1012.59 1011.55 1010.96 1010.75 1011.10 1011.45 1011.69 1011.71 1011.50 1011.31 1011.46 1011.16 1010.23 1008.93 1008.11 1007.19 1006.20 1004.83 1004.56 1003.96 1003.68 1002.83 1002.70 1002.41 1002.10 1002.22 1003.30 1002.41 1001.67 1001.91 1001.72
1022.88 1022.93 1022.89 1022.93 1023.03 1023.07 1023.15 1023.21 1023.16 1023.08 1022.98 1022.76 1022.47 1022.20 1021.90 1021.64 1021.32 1019.67 1017.76 1018.16 1018.28 1018.03 1017.26 1013.42 1010.81 1010.36 1010.49 1010.69 1010.93 1011.01 1011.01 1010.98 1011.20 1011.34 1010.87 1009.66 1009.15 1009.06 1008.02 1006.54 1005.54 1004.92 1005.10 1004.82 1004.50 1004.28 1003.38 1002.65 1002.66 1002.96 1004.02 1003.43 1003.37 1002.22
1022.33 1022.45 1022.46 1022.52 1022.67 1022.79 1022.93 1023.01 1023.00 1022.90 1022.69 1022.42 1022.19 1021.97 1021.65 1021.47 1020.76 1019.44 1019.17 1019.47 1019.35 1018.60 1017.42 1014.28 1010.35 1009.57 1010.11 1010.12 1009.67 1009.91 1010.37 1010.66 1011.14 1011.19 1010.95 1010.47 1009.52 1009.12 1008.45 1006.95 1006.53 1006.38 1006.11 1005.79 1005.54 1005.22 1004.32 1003.79 1002.87 1002.44 1002.61 1003.61 1002.89 1001.74
1021.83 1022.01 1022.08 1022.17 1022.32 1022.44 1022.53 1022.65 1022.63 1022.54 1022.34 1022.07 1021.81 1021.53 1021.18 1020.96 1020.68 1019.55 1018.65 1019.76 1019.66 1018.50 1017.21 1014.98 1010.78 1009.01 1009.63 1009.21 1009.61 1009.64 1009.46 1010.34 1010.85 1010.41 1010.32 1009.48 1009.10 1008.98 1008.40 1007.30 1007.20 1007.55 1007.76 1007.32 1006.63 1006.17 1005.77 1005.11 1004.57 1003.46 1002.14 1001.70 1001.37 1001.07
1021.29 1021.52 1021.64 1021.80 1021.97 1022.15 1022.21 1022.29 1022.31 1022.18 1021.85 1021.55 1021.30 1020.94 1020.23 1019.90 1018.22 1018.89 1019.67 1019.68 1019.15 1018.80 1016.96 1015.06 1011.19 1009.20 1009.37 1009.68 1009.84 1009.16 1009.79 1009.78 1009.86 1009.82 1009.31 1009.13 1008.54 1008.70 1007.87 1007.98 1008.28 1008.18 1008.00 1007.50 1006.99 1006.57 1005.54 1004.98 1004.37 1003.51 1002.64 1000.74 1000.51 1000.38
1020.75 1021.03 1021.16 1021.37 1021.62 1021.85 1021.99 1022.04 1022.00 1021.74 1021.34 1021.00 1020.65 1019.02 1017.46 1018.24 1019.37 1019.48 1019.38 1019.08 1018.51 1017.46 1016.52 1014.00 1011.50 1010.23 1010.60 1010.17 1009.89 1010.22 1009.99 1009.97 1009.53 1008.44 1008.41 1008.44 1007.57 1007.48 1008.36 1008.53 1008.51 1007.89 1007.21 1006.75 1006.16 1005.28 1005.02 1004.31 1003.57 1002.72 1001.81 1000.70 999.84 999.88
1020.20 1020.47 1020.68 1020.96 1021.33 1021.53 1021.73 1021.83 1021.75 1021.41 1020.43 1019.52 1018.39 1017.43 1017.68 1018.82 1018.37 1017.38 1017.03 1016.39 1015.73 1014.85 1014.19 1012.38 1011.29 1011.02 1010.71 1010.45 1010.22 1011.10 1010.90 1010.59 1010.04 1008.50 1008.91 1008.01 1007.79 1008.59 1008.59 1008.15 1007.62 1006.90 1006.16 1005.23 1004.39 1003.51 1003.18 1003.04 1002.73 1001.75 1001.00 1000.21 999.04 999.08
1019.61 1019.91 1020.22 1020.51 1020.98 1021.34 1021.51 1021.67 1021.61 1020.95 1019.89 1020.72 1020.63 1019.22 1018.14 1017.06 1016.36 1016.06 1014.78 1014.10 1013.38 1012.16 1011.72 1011.16 1010.74 1010.19 1009.76 1010.32 1010.72 1011.60 1011.69 1011.41 1009.67 1009.49 1009.67 1008.81 1008.51 1008.26 1007.80 1007.33 1006.41 1005.47 1004.45 1003.34 1002.29 1001.06 1000.45 1000.77 1001.18 1000.96 1000.53 1000.07 998.52 998.55
1019.04 1019.36 1019.76 1020.18 1020.64 1021.03 1021.28 1021.42 1021.49 1021.37 1021.09 1020.14 1019.85 1017.93 1016.33 1015.89 1015.50 1014.08 1012.05 1010.87 1010.27 1010.64 1010.06 1009.64 1009.17 1009.04 1009.17 1010.25 1010.77 1011.01 1011.02 1009.73 1009.19 1009.13 1009.22 1008.81 1008.05 1007.75 1007.09 1006.40 1005.18 1004.12 1003.01 1001.80 1000.55 998.93 998.84 999.27 999.68 999.48 999.54 999.17 998.26 998.33
1018.58 1019.04 1019.48 1019.98 1020.41 1020.80 1021.08 1021.28 1021.35 1021.28 1020.55 1018.29 1017.20 1016.98 1015.21 1013.55 1012.33 1010.65 1010.04 1009.34 1009.27 1009.80 1009.51 1009.45 1008.98 1008.86 1009.52 1010.29 1010.41 1010.29 1010.05 1010.03 1009.37 1009.36 1009.35 1008.26 1008.04 1007.71 1006.62 1005.45 1004.59 1003.37 1001.97 1000.45 998.85 997.87 998.57 998.62 998.57 998.57 998.55 998.55 998.37 998.11
1018.25 1018.81 1019.34 1019.78 1020.17 1020.47 1020.77 1021.09 1021.25 1020.53 1018.97 1017.21 1015.99 1014.81 1012.65 1011.42 1010.53 1010.34 1009.95 1009.81 1009.58 1009.29 1009.32 1009.04 1008.86 1009.54 1009.62 1009.89 1009.67 1009.70 1009.88 1009.12 1008.83 1008.99 1008.46 1008.06 1007.36 1006.93 1005.71 1004.67 1003.70 1002.72 1001.25 999.53 997.91 997.14 996.92 997.37 997.77 997.94 998.08 998.24 998.32 998.09
1018.16 1018.93 1019.17 1019.42 1019.89 1020.32 1020.64 1020.98 1020.76 1019.40 1018.06 1016.61 1015.04 1012.97 1011.43 1010.82 1010.00 1009.60 1009.50 1009.36 1009.11 1009.17 1009.36 1009.58 1009.77 1009.42 1009.23 1009.16 1008.78 1008.45 1008.41 1007.86 1008.06 1008.35 1007.96 1007.23 1006.29 1005.38 1004.93 1003.86 1003.09 1001.95 1000.93 999.48 997.96 996.86 996.69 996.48 996.62 996.94 997.15 997.39 997.69 997.46
1018.04 1018.06 1018.44 1019.15 1019.68 1020.05 1020.30 1020.33 1019.22 1018.29 1016.71 1015.05 1012.88 1011.87 1011.41 1010.79 1010.27 1009.75 1009.52 1009.30 1009.33 1009.63 1009.34 1009.34 1009.83 1009.49 1009.26 1008.40 1008.02 1007.99 1007.86 1007.75 1007.71 1006.98 1006.50 1005.58 1005.00 1004.52 1003.95 1003.11 1002.21 1001.41 1000.67 999.69 998.33 997.14 996.47 995.87 995.65 995.87 996.26 996.59 996.57 997.10
1017.55 1017.73 1018.34 1019.04 1019.42 1019.95 1019.91 1019.42 1018.37 1017.02 1015.31 1013.51 1012.19 1011.05 1010.55 1010.47 1010.21 1009.89 1009.65 1009.62 1009.72 1009.45 1009.95 1010.10 1010.19 1009.82 1009.54 1008.62 1008.05 1007.74 1007.67 1007.53 1006.56 1005.68 1004.95 1004.37 1004.06 1003.57 1003.27 1002.99 1002.31 1001.14 1000.99 1000.15 999.23 998.52 997.82 997.16 996.34 996.03 996.18 996.60 996.52 996.68
1017.15 1017.81 1018.47 1019.00 1019.11 1019.31 1018.70 1018.10 1017.45 1015.61 1013.51 1012.16 1011.35 1010.98 1010.65 1010.24 1010.02 1009.97 1009.81 1009.72 1009.77 1009.74 1009.64 1009.57 1009.76 1009.13 1008.95 1008.62 1008.20 1007.98 1007.64 1006.89 1005.94 1005.13 1004.42 1003.73 1003.47 1003.31 1003.32 1003.17 1002.71 1002.01 1001.65 1001.10 1000.54 999.95 999.70 999.16 998.34 997.92 997.78 997.64 997.48 997.37
1017.76 1018.32 1018.82 1019.21 1019.58 1018.71 1017.83 1017.13 1016.69 1015.24 1013.17 1011.35 1011.19 1010.60 1010.07 1009.61 1009.29 1009.10 1008.97 1008.95 1009.11 1009.32 1009.36 1009.34 1008.90 1008.83 1008.65 1008.45 1008.37 1007.85 1007.59 1006.68 1006.07 1005.46 1004.65 1004.17 1003.58 1003.19 1003.47 1003.36 1003.08 1002.68 1002.08 1001.97 1001.64 1001.00 1000.05 1000.02 999.88 999.69 999.63 999.38 998.89 998.35
1018.17 1018.90 1019.47 1019.64 1019.33 1018.11 1016.66 1015.31 1014.96 1013.74 1012.49 1011.63 1010.40 1009.97 1009.48 1009.06 1008.61 1008.47 1008.06 1008.33 1008.49 1008.32 1008.30 1008.44 1008.51 1009.07 1009.10 1008.98 1008.37 1007.81 1007.44 1007.02 1006.59 1006.14 1005.31 1004.36 1003.61 1003.41 1003.23 1003.45 1003.14 1003.29 1003.05 1002.60 1002.25 1002.31 1001.69 1001.27 1001.12 1000.90 1000.57 1000.28 999.78 999.32
1018.17 1018.69 1019.21 1019.36 1018.37 1017.21 1016.02 1014.73 1013.94 1013.18 1012.65 1011.05 1010.34 1009.77 1009.04 1008.16 1007.50 1007.14 1007.41 1007.63 1007.66 1007.97 1008.11 1008.17 1008.56 1008.69 1008.78 1008.23 1007.76 1007.40 1006.81 1006.36 1005.88 1005.42 1004.59 1003.71 1003.33 1002.32 1002.71 1003.32 1003.15 1003.26 1003.36 1003.18 1003.13 1003.06 1002.84 1002.26 1002.08 1001.92 1001.61 1001.24 1000.77 1000.42
1018.27 1018.60 1018.63 1018.24 1017.14 1016.29 1015.36 1014.36 1013.73 1012.40 1011.51 1010.22 1009.59 1009.03 1008.19 1007.67 1007.17 1007.30 1007.24 1006.85 1007.44 1007.79 1007.79 1008.07 1008.58 1008.73 1008.45 1007.77 1006.94 1006.51 1005.92 1005.66 1005.51 1004.90 1004.21 1003.23 1002.80 1002.41 1002.05 1003.00 1003.08 1002.72 1002.88 1002.85 1002.97 1003.55 1003.63 1003.69 1003.28 1003.00 1002.77 1002.28 1001.72 1002.06
1018.10 1018.14 1017.60 1016.51 1015.86 1014.95 1013.99 1013.65 1013.14 1012.08 1010.77 1010.12 1009.16 1008.43 1007.73 1007.09 1006.90 1006.99 1006.49 1006.43 1006.99 1006.82 1007.47 1008.23 1008.31 1007.79 1007.41 1006.55 1005.81 1005.31 1005.25 1004.98 1004.78 1004.77 1004.09 1003.24 1002.74 1002.45 1002.14 1003.11 1003.48 1003.13 1002.82 1002.93 1003.29 1004.39 1004.67 1004.52 1004.47 1004.35 1004.22 1003.96 1003.83 1003.79
1017.95 1017.39 1016.64 1015.74 1014.76 1013.94 1013.09 1012.43 1011.71 1011.10 1010.33 1009.38 1008.83 1008.15 1007.31 1007.38 1006.87 1006.46 1006.00 1006.28 1006.62 1006.59 1007.22 1007.66 1007.68 1007.48 1006.91 1006.22 1005.57 1005.17 1004.92 1004.86 1005.01 1005.16 1004.05 1003.11 1002.86 1002.48 1002.95 1003.07 1003.67 1003.68 1003.69 1003.52 1004.25 1005.26 1005.73 1005.87 1005.77 1005.81 1005.72 1005.82 1005.64 1005.96
1016.62 1015.49 1015.06 1013.83 1013.23 1012.73 1011.77 1011.05 1010.54 1009.97 1009.40 1008.85 1008.19 1007.83 1007.67 1007.26 1006.95 1005.92 1005.47 1006.13 1006.50 1006.85 1007.25 1007.26 1007.07 1007.01 1006.61 1006.06 1005.68 1005.23 1005.16 1005.40 1005.53 1005.16 1004.32 1003.69 1003.55 1003.16 1003.79 1003.94 1004.14 1004.29 1004.39 1004.31 1004.60 1005.31 1005.90 1006.29 1006.58 1006.69 1007.02 1007.37 1007.29 1007.13
1015.41 1013.84 1013.12 1012.59 1011.95 1011.61 1011.03 1010.44 1009.93 1009.44 1009.36 1008.93 1007.86 1007.68 1007.55 1006.89 1005.87 1005.43 1005.98 1006.37 1006.55 1006.84 1006.81 1007.03 1006.94 1006.67 1006.16 1005.84 1005.61 1005.41 1005.52 1005.71 1005.54 1005.07 1004.62 1004.36 1004.23 1004.18 1004.19 1004.64 1005.04 1005.25 1005.12 1005.17 1005.29 1005.48 1005.65 1005.93 1006.35 1006.98 1007.57 1008.16 1008.20 1008.36
1014.11 1012.57 1011.88 1011.65 1011.39 1010.98 1010.37 1009.64 1009.12 1008.67 1008.23 1007.83 1007.64 1007.32 1006.91 1006.01 1005.65 1006.33 1006.67 1006.80 1006.97 1006.63 1006.27 1006.33 1006.35 1005.83 1005.35 1005.19 1005.39 1005.27 1005.53 1006.08 1006.02 1005.52 1005.12 1004.55 1004.85 1005.23 1005.49 1005.47 1005.75 1006.12 1006.33 1006.32 1006.06 1006.09 1005.93 1006.08 1006.20 1006.40 1006.53 1006.66 1007.01 1007.45
1012.98 1011.60 1011.05 1010.45 1010.42 1010.02 1009.61 1009.04 1008.41 1007.69 1007.60 1007.52 1007.28 1006.95 1006.55 1006.13 1006.01 1006.06 1006.17 1006.39 1006.40 1006.13 1005.76 1005.65 1005.36 1005.04 1004.83 1004.98 1005.27 1005.42 1005.89 1005.88 1005.61 1005.39 1004.88 1004.49 1004.69 1004.97 1005.19 1005.51 1005.84 1006.17 1006.48 1006.90 1007.25 1006.64 1006.49 1006.84 1006.75 1006.58 1006.57 1006.63 1006.76 1006.98
1011.07 1010.49 1010.18 1009.77 1009.46 1008.97 1008.46 1008.17 1007.80 1007.54 1007.42 1007.36 1007.41 1007.35 1007.06 1006.73 1006.50 1006.28 1005.97 1005.74 1005.58 1005.32 1005.11 1004.89 1004.65 1004.42 1004.32 1004.41 1004.51 1005.01 1005.66 1005.55 1005.21 1004.85 1004.55 1004.90 1005.20 1005.51 1005.75 1005.97 1006.20 1006.55 1006.88 1007.10 1007.41 1007.59 1007.71 1007.16 1007.23 1006.75 1007.18 1007.21 1007.30 1007.29
1010.03 1009.84 1009.55 1009.13 1008.62 1008.29 1007.84 1007.69 1007.56 1007.45 1007.35 1007.28 1007.24 1007.03 1006.56 1006.24 1005.93 1005.74 1005.38 1005.04 1004.72 1004.46 1004.35 1004.47 1004.51 1004.19 1004.27 1004.28 1004.29 1004.85 1005.45 1005.96 1005.67 1005.12 1005.19 1005.45 1005.73 1005.96 1006.18 1006.52 1006.74 1006.88 1006.94 1006.80 1006.80 1006.84 1007.05 1007.43 1007.78 1007.92 1008.06 1008.33 1008.44 1007.92
1009.70 1009.36 1009.02 1008.58 1008.14 1007.64 1007.63 1007.51 1007.27 1007.08 1006.85 1006.73 1006.52 1006.30 1005.94 1005.69 1005.24 1004.84 1004.77 1004.67 1004.96 1004.87 1004.78 1004.60 1004.08 1003.84 1004.16 1003.91 1004.60 1004.81 1005.38 1005.34 1005.41 1005.48 1005.68 1005.86 1006.32 1006.46 1006.52 1006.61 1006.70 1006.76 1006.73 1006.77 1006.99 1007.32 1007.86 1008.41 1008.48 1008.28 1008.80 1008.70 1008.64 1009.17
1009.08 1008.83 1008.72 1008.40 1008.03 1007.58 1007.00 1007.17 1007.03 1006.75 1006.61 1007.08 1007.57 1007.42 1007.01 1006.57 1006.35 1006.13 1005.42 1004.80 1005.17 1004.97 1004.55 1003.74 1003.71 1003.86 1004.02 1003.91 1004.26 1005.06 1005.49 1005.60 1006.51 1006.70 1006.92 1007.34 1007.50 1007.14 1006.66 1006.72 1006.97 1007.06 1007.25 1007.52 1008.02 1008.19 1007.92 1008.26 1008.45 1008.58 1008.82 1009.09 1009.25 1009.36
Wind_Speed
8 8 8 7 5 5 5 6 7 9 10 12 13 14 14 15 17 12 3 5 7 6 12 9 6 9 8 7 8 10 9 8 8 10 10 12 12 12 14 14 12 14 14 14 15 20 28 21 14 17 14 11 6 7
8 8 8 7 7 6 5 6 7 8 9 10 11 12 13 13 14 15 6 3 3 7 9 14 14 15 13 11 10 7 11 8 5 8 7 7 13 12 14 14 13 12 13 14 16 4 11 13 13 14 6 10 3 8
9 8 8 8 7 7 6 6 6 7 8 9 10 11 11 12 12 10 7 6 8 9 12 8 5 6 8 10 10 9 6 7 6 8 8 9 14 11 12 12 16 15 11 13 18 17 15 5 6 16 6 6 3 3
10 9 9 8 7 7 7 7 7 7 8 9 10 11 11 11 11 10 8 5 7 6 6 2 7 7 8 9 9 10 12 11 9 7 9 8 11 11 12 15 15 14 17 14 16 18 19 21 7 10 17 6 5 3
9 8 9 8 8 8 8 7 7 8 9 10 10 11 11 11 11 10 9 2 3 7 7 10 16 12 8 8 10 11 11 12 8 8 8 10 12 12 13 15 15 15 16 13 15 18 16 19 13 9 17 3 5 7
9 9 9 9 8 8 8 8 8 8 10 11 11 11 11 11 11 8 6 2 1 4 4 6 6 6 8 6 9 12 11 10 8 7 7 10 17 11 8 13 18 13 9 13 13 18 24 22 22 10 6 21 25 12
10 10 10 10 9 9 8 8 8 9 10 11 12 13 12 10 8 6 8 4 6 4 4 6 5 10 6 9 8 6 9 5 6 6 5 13 15 9 8 18 21 21 21 18 16 19 18 22 17 17 17 24 26 16
11 10 10 10 10 9 8 8 8 10 11 12 13 13 12 9 10 6 1 8 7 5 4 5 6 5 1 6 5 6 9 4 5 7 7 10 8 4 6 14 14 3 11 20 22 21 20 20 21 20 22 18 21 19
11 11 10 11 10 10 8 8 9 11 12 13 14 13 6 7 3 4 4 5 5 5 3 4 6 4 3 8 8 6 2 5 3 6 8 5 3 7 13 12 9 10 11 15 16 20 23 24 22 22 23 22 21 20
12 11 11 11 10 10 8 7 8 12 14 14 7 8 5 4 8 8 3 3 3 4 4 6 8 6 6 8 4 4 2 3 3 4 2 6 8 9 5 4 13 20 23 20 24 25 24 23 23 24 21 24 19 20
12 12 12 11 10 10 8 6 8 13 13 6 3 2 6 6 5 5 4 5 4 5 6 6 5 7 6 9 8 0 4 3 4 1 4 4 4 3 10 15 16 17 20 22 23 25 24 22 22 22 19 24 18 18
13 12 13 12 11 10 7 5 8 7 5 5 5 5 4 5 3 4 5 3 5 4 7 3 5 8 4 3 2 0 3 2 7 2 2 4 2 15 16 20 22 21 20 21 21 23 23 22 23 23 16 21 16 15
13 12 14 13 11 10 8 5 4 6 8 3 4 4 3 3 2 7 7 6 4 5 4 5 7 7 3 2 4 3 4 5 8 2 3 4 9 16 22 20 22 23 22 21 23 11 6 12 20 21 17 20 11 10
13 14 14 12 10 10 8 6 5 8 6 5 5 3 6 7 7 6 6 5 6 4 6 6 7 4 2 2 3 4 4 4 3 3 5 7 13 18 24 22 20 22 23 22 20 5 7 13 15 16 16 9 8 12
13 15 13 12 13 11 9 6 6 6 5 5 4 6 9 9 5 5 6 4 6 3 6 6 5 3 4 5 4 3 3 5 4 4 10 11 19 17 21 22 21 20 20 19 15 7 11 14 14 14 13 11 12 12
15 11 7 12 13 10 9 5 5 5 4 5 7 8 8 6 7 6 5 6 5 3 7 3 4 3 4 3 5 4 5 4 5 4 9 14 18 18 17 19 17 16 14 18 15 5 6 6 9 10 11 12 13 15
14 4 17 13 13 11 10 6 3 5 6 6 7 8 8 8 7 7 6 6 3 5 3 3 2 2 6 4 3 2 4 9 9 12 12 16 17 16 15 14 12 12 12 13 13 8 5 10 8 8 8 11 13 14
2 9 17 16 12 6 4 5 4 5 8 8 8 8 6 6 7 7 6 5 5 5 2 3 3 4 4 6 6 6 10 10 12 10 12 12 14 12 11 15 15 12 9 13 14 14 14 13 3 6 8 8 7 8
8 9 17 16 5 3 5 5 4 6 8 7 6 6 7 6 6 6 6 5 5 6 5 3 5 5 5 5 7 9 10 12 13 14 13 12 11 13 14 12 12 11 11 11 11 9 10 9 7 6 5 2 3 5
14 15 14 10 4 3 4 4 4 5 6 2 4 7 6 6 6 5 6 6 7 7 6 5 7 6 7 9 10 11 10 12 11 12 13 11 12 12 11 10 8 11 8 9 8 12 10 7 8 8 7 6 5 3
8 7 9 6 3 5 4 3 7 6 6 5 5 5 6 7 7 8 8 6 6 7 7 5 5 4 8 9 11 9 11 10 9 9 11 11 10 10 9 9 9 7 8 7 7 7 9 8 6 6 7 6 6 4
4 8 3 3 4 5 5 5 5 6 4 6 6 7 6 6 7 7 2 5 7 6 5 4 3 4 8 10 10 11 11 12 10 9 10 10 7 8 8 7 8 7 6 6 6 7 7 7 6 7 7 7 9 10
8 2 2 5 6 4 6 2 6 4 5 4 3 4 5 5 4 3 5 4 0 2 3 2 3 7 9 12 10 10 7 9 9 6 9 9 4 6 7 7 8 8 7 8 6 8 7 8 9 8 8 8 8 10
1 4 5 6 8 5 4 4 4 5 4 6 4 4 4 3 1 4 7 4 4 5 5 3 3 6 6 8 7 6 6 8 7 7 9 10 7 6 7 9 6 7 8 8 10 10 9 9 10 10 10 10 10 12
3 4 4 3 5 4 5 5 6 5 6 6 5 6 4 3 4 4 8 5 6 6 6 4 4 5 6 7 7 7 5 7 6 5 8 8 9 8 8 8 7 8 6 9 12 11 9 9 11 12 12 12 15 17
4 6 5 8 5 6 5 4 5 7 7 4 5 3 2 4 4 6 0 4 4 4 5 6 3 6 7 7 8 7 7 5 3 4 7 8 8 8 8 7 6 9 7 7 12 14 15 14 15 16 15 17 18 18
4 7 6 5 4 5 4 5 4 4 4 5 4 3 4 5 6 2 6 2 4 5 2 3 5 8 8 8 7 4 3 2 2 3 5 7 7 8 8 8 10 5 9 11 12 13 14 14 17 18 17 13 12 12
5 4 8 8 6 6 7 5 4 5 6 4 3 5 4 4 4 4 2 1 3 7 7 7 8 10 9 6 5 3 1 3 7 7 5 6 8 9 11 9 11 12 7 5 9 9 10 13 14 15 15 14 14 14
6 6 7 8 8 6 6 7 7 4 3 5 7 9 7 4 5 6 7 8 8 9 9 8 9 8 6 3 4 5 4 5 3 6 9 7 8 8 9 9 10 10 10 11 16 12 14 12 12 12 13 11 10 10
7 6 6 7 11 7 6 6 6 6 6 6 6 9 10 10 9 9 9 9 9 10 10 10 8 7 4 5 7 7 6 2 1 3 6 9 8 8 8 9 10 11 11 12 12 12 9 10 7 9 13 11 10 8
4 7 8 7 9 9 8 8 8 9 9 10 10 11 12 11 10 10 10 10 9 8 7 5 7 5 5 6 5 7 6 1 4 1 9 9 9 9 10 10 10 9 9 8 8 8 8 12 11 11 11 11 4 6
5 8 7 9 8 4 4 7 9 10 10 10 11 11 11 11 12 8 5 4 2 5 5 7 7 7 8 6 7 6 7 4 8 8 11 10 9 9 9 8 8 7 7 7 7 8 12 8 2 6 8 4 8 11
8 7 7 6 6 8 4 4 6 7 4 6 4 3 6 6 5 3 4 4 3 5 5 5 1 9 5 3 8 8 4 12 16 15 18 15 15 12 4 7 6 6 7 9 10 6 2 9 5 6 3 7 8 6
Wind_Direction
279 286 295 272 277 282 297 318 332 341 346 349 352 354 356 356 348 334 355 18 324 303 300 302 286 284 279 243 282 6 285 185 263 256 263 276 273 268 260 266 269 272 272 258 255 267 251 7 311 280 208 263 16 1
270 279 286 260 266 266 279 306 322 331 338 343 345 347 347 348 345 341 303 23 323 268 305 322 284 277 274 280 290 277 294 305 320 307 321 330 310 315 299 275 268 258 274 287 283 203 304 295 300 320 344 312 13 334
262 267 273 251 256 256 265 286 302 316 327 333 336 337 337 338 339 336 315 309 295 255 273 221 208 165 213 235 256 267 277 348 289 351 312 291 279 284 279 285 301 290 292 280 292 285 287 175 243 272 301 253 5 12
250 255 265 243 244 248 255 271 290 306 316 321 324 327 328 328 328 322 301 344 287 301 284 74 147 213 231 226 231 249 278 280 288 298 297 279 288 296 275 287 292 292 314 285 271 280 283 277 210 307 289 212 238 340
253 255 263 238 236 239 251 267 286 298 306 313 319 322 321 320 319 293 268 326 300 321 321 314 307 253 202 212 232 240 255 266 265 266 255 264 276 290 282 278 273 274 269 272 283 290 287 288 298 12 285 269 300 314
244 249 251 232 233 234 245 259 276 291 302 309 314 315 314 314 318 278 203 146 289 347 283 284 8 239 224 224 236 237 248 252 251 251 259 258 255 269 272 264 279 296 283 281 292 307 294 276 279 273 273 300 302 278
232 238 238 222 227 230 245 261 279 291 298 305 307 305 303 300 282 299 358 18 342 301 256 283 264 168 228 251 254 261 230 219 250 278 237 257 271 261 258 263 271 287 315 320 324 318 297 299 299 277 189 221 257 260
231 236 234 219 225 227 236 255 274 289 298 303 301 298 293 272 260 245 109 202 284 267 264 273 279 235 98 298 332 280 289 190 214 239 253 263 268 261 265 271 279 327 298 297 299 300 297 301 304 301 284 244 251 253
229 231 227 214 218 223 230 252 275 290 296 296 298 296 244 226 242 80 86 162 222 292 282 253 285 9 17 339 300 320 314 257 224 222 229 256 220 225 242 274 319 303 285 280 273 276 288 289 283 286 282 259 244 244
223 224 213 209 212 218 229 253 281 294 291 294 268 209 188 52 121 166 156 183 218 214 226 262 276 286 310 306 321 299 253 287 275 243 101 216 249 273 94 263 274 276 271 261 263 262 263 262 262 262 263 276 235 239
218 216 206 200 208 211 221 248 286 302 272 218 257 348 66 136 235 216 210 233 186 221 211 232 281 314 321 308 328 53 341 320 273 302 310 309 291 20 289 291 288 287 279 273 261 258 253 247 252 253 247 275 241 234
212 209 200 192 199 206 211 237 287 272 21 9 309 261 258 228 235 266 228 240 236 253 179 292 279 251 246 229 273 196 263 245 257 30 239 254 247 293 302 311 307 303 301 299 292 276 245 228 225 236 245 261 239 238
206 202 191 187 188 198 201 215 268 298 274 224 240 244 242 215 241 235 201 207 189 206 211 279 310 317 38 348 225 233 261 242 315 219 263 270 274 302 319 316 310 313 313 307 303 289 285 203 214 218 221 251 228 235
198 190 181 179 184 193 195 208 243 257 260 238 207 267 229 195 237 221 259 333 26 336 298 323 297 301 291 222 251 246 263 321 277 293 266 281 304 310 308 312 313 314 312 304 292 225 172 196 206 215 232 256 273 243
184 174 172 184 188 188 190 202 238 241 273 253 230 239 222 254 301 295 309 310 260 298 300 307 319 309 231 252 219 246 269 240 218 246 292 302 301 300 297 305 310 310 310 321 330 254 190 191 195 210 213 220 233 239
156 138 188 172 186 187 177 196 218 241 244 245 238 252 248 266 258 234 231 252 266 345 294 42 283 265 259 269 235 226 269 305 331 299 294 301 298 301 304 306 307 307 318 331 330 296 250 215 216 213 217 214 212 211
147 218 163 164 182 182 186 233 210 236 249 239 235 227 266 293 297 304 313 302 313 272 305 274 307 283 292 257 304 328 302 322 325 302 297 302 311 314 311 316 317 314 338 336 344 2 238 211 182 168 168 191 188 186
186 139 151 149 148 143 193 229 212 245 246 243 253 254 238 257 283 283 275 259 256 255 275 279 294 266 287 292 304 344 335 305 294 310 306 317 323 340 357 347 344 357 356 4 12 17 12 359 335 178 175 186 200 183
141 139 153 160 155 217 195 208 237 255 239 262 266 271 265 271 271 276 275 270 264 281 293 274 251 242 256 293 319 327 302 307 311 316 315 324 351 6 6 350 348 359 7 10 9 1 351 343 336 13 18 306 226 210
126 139 152 172 223 243 213 201 228 256 274 337 270 263 264 267 275 267 252 230 215 217 228 237 252 277 311 317 319 303 300 299 319 321 323 330 324 7 18 351 4 353 3 9 22 2 357 49 43 38 29 18 5 308
111 134 143 175 231 252 275 212 208 246 291 276 288 287 280 268 241 230 228 222 220 235 245 266 315 321 329 295 288 292 302 307 311 302 304 313 330 352 20 360 17 14 359 9 26 9 8 3 12 27 21 4 349 41
103 131 123 215 242 233 250 232 280 340 268 273 291 256 264 266 238 221 218 221 234 240 247 263 266 321 303 297 310 307 306 307 307 309 306 299 344 345 39 15 14 25 12 9 32 20 21 21 26 32 18 21 43 53
108 136 165 225 224 195 260 257 242 230 248 261 225 242 235 229 236 113 246 212 161 136 168 193 356 277 266 281 279 284 282 312 317 331 320 327 274 336 50 41 2 21 33 21 66 45 35 24 28 41 28 35 60 60
96 171 213 203 193 240 186 210 237 252 237 233 244 252 261 253 346 239 256 194 180 171 169 177 276 307 309 294 301 329 355 319 342 348 330 330 356 323 48 85 42 10 38 36 61 60 34 42 37 44 41 43 49 63
152 222 192 229 236 224 225 224 212 229 247 229 239 253 232 159 247 286 283 145 189 203 175 191 273 289 306 316 330 326 350 355 350 327 327 334 7 355 62 55 44 51 28 61 64 69 55 51 58 54 50 58 70 71
212 202 199 197 191 213 219 228 213 223 246 260 240 241 278 245 242 251 83 92 147 168 183 223 297 311 310 318 324 324 351 4 328 327 335 4 11 350 81 62 44 57 60 69 81 80 82 80 76 72 69 64 62 76
230 198 202 232 220 206 234 251 268 237 186 237 253 202 215 247 233 186 80 140 161 193 207 274 283 288 299 305 306 301 336 342 357 330 25 22 38 35 53 65 55 44 80 87 100 99 96 95 97 96 95 94 92 95
253 251 208 196 217 229 253 270 227 228 227 244 253 221 225 244 32 88 56 63 259 271 282 298 285 281 295 307 292 265 334 28 291 328 334 78 91 87 75 75 77 71 74 57 94 100 103 97 100 102 102 102 103 101
228 218 227 211 206 213 230 238 248 239 262 275 255 249 247 265 325 329 326 316 293 276 276 282 284 286 276 250 208 219 186 238 281 256 194 108 90 88 94 98 94 90 90 80 50 63 82 91 101 105 106 109 114 113
225 202 213 221 222 232 231 234 269 292 294 285 281 282 279 273 270 269 275 284 289 286 282 282 285 272 247 220 190 170 203 213 57 306 105 111 111 101 101 103 101 99 101 103 107 117 137 141 156 103 63 57 61 66
204 205 233 244 245 243 260 268 274 274 269 264 264 267 274 282 280 273 273 273 270 257 251 251 260 232 212 216 169 159 135 147 226 199 113 116 115 112 109 113 121 130 133 135 135 130 109 67 65 85 106 108 99 38
208 223 228 244 257 271 281 272 272 272 268 260 258 257 262 267 282 298 266 266 262 279 259 248 232 176 198 188 54 88 140 188 128 137 133 113 120 132 133 129 129 128 127 114 101 86 107 119 97 78 86 65 94 122
216 218 234 272 272 258 242 273 288 284 309 356 341 310 280 264 254 294 273 279 270 257 253 193 189 137 163 164 126 134 159 88 83 72 70 60 39 14 123 110 109 104 70 56 56 21 74 122 142 153 119 92 82 101